This is the latest recevied weather packets stored in our database for station/object NI4CE-11. If no packets are shown the sender has not sent any weather packets the latest 1 day(s).
| Time | Temp. | Humidity | Pressure | Rain* | Wind** | Luminosity | Snow |
|---|---|---|---|---|---|---|---|
| 1778075383 | 27.78° C | 100% | 1017.5 hPa | 0 mm | - | - | - |
| 1778075083 | 28.33° C | 100% | 1017.5 hPa | 0 mm | - | - | - |
| 1778074793 | 27.22° C | 100% | 1017.5 hPa | 0 mm | - | - | - |
| 1778074783 | 26.67° C | 100% | 1017.6 hPa | 0 mm | - | - | - |
| 1778074483 | 27.22° C | 100% | 1017.5 hPa | 0 mm | - | - | - |
| 1778074183 | 27.22° C | 100% | 1017.5 hPa | 0 mm | - | - | - |
| 1778073964 | 26.11° C | 100% | 1017.4 hPa | 0 mm | - | - | - |
| 1778073631 | 26.11° C | 100% | 1017.4 hPa | 0 mm | - | - | - |
| 1778073583 | 26.11° C | 100% | 1017.4 hPa | 0 mm | - | - | - |
| 1778072825 | 26.67° C | 100% | 1017.3 hPa | 0 mm | - | - | - |
| 1778072683 | 26.67° C | 100% | 1017.3 hPa | 0 mm | - | - | - |
| 1778072383 | 25° C | 100% | 1017.1 hPa | 0 mm | - | - | - |
| 1778071941 | 24.44° C | 100% | 1017.1 hPa | 0 mm | - | - | - |
| 1778071762 | 26.67° C | 100% | 1016.9 hPa | 0 mm | - | - | - |
| 1778070624 | 26.67° C | 100% | 1016.9 hPa | 0 mm | - | - | - |
| 1778069142 | 22.78° C | 100% | 1016.9 hPa | 0 mm | - | - | - |
| 1778068832 | 23.89° C | 100% | 1016.7 hPa | 0 mm | - | - | - |
| 1778068218 | 23.89° C | 100% | 1016.7 hPa | 0 mm | - | - | - |
| 1778067638 | 22.22° C | 100% | 1016.6 hPa | 0 mm | - | - | - |
| 1778063384 | 21.11° C | 100% | 1016 hPa | 0 mm | - | - | - |
| 1778063084 | 22.22° C | 100% | 1016 hPa | 0 mm | - | - | - |
| 1778062784 | 20° C | 100% | 1016 hPa | 0 mm | - | - | - |
| 1778062484 | 21.11° C | 100% | 1016 hPa | 0 mm | - | - | - |
| 1778062184 | 20° C | 100% | 1016 hPa | 0 mm | - | - | - |
| 1778061884 | 20° C | 100% | 1016 hPa | 0 mm | - | - | - |
* Rain latest hour (hover to see other rain measurements)
** Current wind speed in m/s (hover to see current wind gust speed)